Weather Roundup
Issued by NWS Corpus Christi, TX

Home | Current Version | Previous Version | Text Only | Print | Product List | Glossary On
Versions: 1 2 3 4 5 6 7 8 9 10 11 12 13 14 15 16 17 18 19 20 21 22 23 24 25 26 27 28 29 30 31 32 33 34 35 36 37 38 39 40 41 42 43 44 45 46 47 48 49 50
000
ASUS44 KCRP 191410
HRRCRP

SOUTH TEXAS REGIONAL WEATHER ROUNDUP
NATIONAL WEATHER SERVICE CORPUS CHRISTI TX
900 AM CDT SAT APR 19 2014


TXZ229>244-191500-
...CORPUS CHRISTI AREA OBSERVATIONS...

CITY           SKY/WX    TMP DP  RH WIND       PRES   REMARKS
CORPUS CHRISTI PTSUNNY   69  61  75 E7        30.14R
NAS CORPUS CHR PTSUNNY   70  63  78 E8        30.14R
ROCKPORT       PTSUNNY   66  63  90 NE7       30.14S FOG
KINGSVILLE NAS PTSUNNY   67  62  84 NE6       30.13S
ALICE          PTSUNNY   65  60  84 E5        30.13R
FALFURRIAS     PTSUNNY   60  58  90 E3        30.13S
$$

...VICTORIA AREA OBSERVATIONS...

CITY           SKY/WX    TMP DP  RH WIND       PRES   REMARKS
VICTORIA       FOG       60  59  96 NE7       30.17R VSB 1/2
BEEVILLE       FAIR      62  62 100 CALM      30.15R
PLEASANTON     MOSUNNY   62  57  84 CALM      30.16S
SAN ANTONIO    PTSUNNY   63  57  81 CALM      30.17R
$$

...LAREDO AREA OBSERVATIONS...

CITY           SKY/WX    TMP DP  RH WIND       PRES   REMARKS
LAREDO         CLOUDY    67  58  72 SE7       30.14S
COTULLA        CLOUDY    63  56  78 SE7       30.14R
DEL RIO        CLOUDY    66  52  60 E9        30.11R
MCALLEN        CLOUDY    67  61  81 E7        30.12R
HEBBRONVILLE   CLOUDY    62  60  94 SE5       30.13S FOG
$$

...OTHER TEXAS OBSERVATIONS...

CITY           SKY/WX    TMP DP  RH WIND       PRES   REMARKS
BROWNSVILLE    MOSUNNY   69  66  90 E8        30.11S
HOUSTON        PTSUNNY   65  58  78 NE3       30.19R
COL. STATION   MOSUNNY   62  56  80 CALM      30.19R
AUSTIN         PTSUNNY   61  56  83 CALM      30.18R FOG
WACO           MOSUNNY   59  54  83 CALM      30.18R
FORT WORTH     MOSUNNY   65  55  70 S6        30.18R
WICHITA FALLS  SUNNY     63  49  60 S13       30.15R
LUBBOCK        PTSUNNY   56  46  69 S14       30.11S
EL PASO        LGT RAIN  62  49  62 NW5       30.06R
$$

...MARINE OBSERVATIONS...

STATION/POSITION TIME  SKY/WX   TEMP    WIND        PRES    VSBY  WAVE   SWELL
                                AIR SEA DIR/SP/G                  HT/PER HT/PER
                 (UTC)          (F)     (DEG/KT/KT) (MB)    (MI)  (FT/S) (FT/S)
PORT ARANSAS     1400            67 67   70/  7/  7 1020.7S
BUOY 90 E PORT A NOT AVBL
BUOY 45 SE BAFFI 1400            68 67  110/  8/ 10 1020.2R         4/ 9   3/ 9
BUOY 200 E PT IS NOT AVBL
BUOY 15 E GALVES 1400            67 67   90/ 12/ 14 1020.8R         2/ 3   2/ 8
$$


USA.gov is the U.S. government's official web portal to all federal, state and local government web resources and services.